Temp
82 86 85 84 88 88 89 89 86 85 85 85 84 84 84 84 83 82 81 81 79 79
82 83 85 83 84 88 86 91 89 85 85 85 85 84 83 84 82 83 81 80 80 79
84 83 84 85 83 84 86 87 89 85 86 85 84 84 83 83 83 81 82 82 79 78
85 84 84 85 85 85 85 85 87 86 85 84 84 84 83 82 83 82 80 81 80 78
85 85 85 84 86 86 85 85 86 86 85 84 84 84 83 83 84 83 80 80 80 80
85 85 85 85 85 86 85 85 86 86 85 84 84 84 84 83 83 83 82 81 80 80
85 85 86 86 85 85 86 84 85 85 85 85 85 85 85 84 83 83 84 83 82 81
86 87 86 85 86 86 85 86 85 85 85 85 86 88 84 84 84 83 82 83 83 83
87 86 86 85 85 85 85 85 85 84 85 85 88 79 74 81 85 84 82 82 83 83
87 86 85 85 85 84 84 85 84 84 85 84 85 73 71 73 85 84 83 82 82 83
88 86 85 85 84 84 85 84 84 84 84 84 85 72 69 71 83 83 83 83 83 82
89 86 85 84 84 84 84 84 84 85 84 83 84 69 67 69 82 83 82 83 83 83
89 87 86 85 84 85 85 85 87 85 85 80 84 70 64 68 85 82 83 83 82 71
88 87 86 85 85 85 84 85 83 84 85 85 83 83 62 61 83 84 83 83 83 85
MSLP
1011.38 1011.51 1011.97 1012.26 1012.06 1012.37 1012.43 1012.60 1012.89 1013.55 1014.02 1014.48 1014.95 1015.42 1015.70 1016.17 1016.56 1016.87 1017.25 1017.52 1017.60 1017.62
1010.61 1010.95 1010.97 1011.54 1011.81 1011.86 1012.02 1012.05 1012.10 1012.86 1013.49 1013.92 1014.42 1015.04 1015.49 1015.83 1016.16 1016.38 1016.75 1017.10 1017.26 1017.50
1009.27 1009.96 1010.38 1010.75 1011.24 1011.36 1011.68 1011.76 1011.92 1012.40 1012.95 1013.48 1014.01 1014.57 1015.07 1015.37 1015.66 1016.00 1016.20 1016.57 1016.87 1017.10
1008.18 1009.00 1009.66 1010.06 1010.37 1010.87 1011.16 1011.50 1011.60 1012.14 1012.58 1012.98 1013.42 1014.08 1014.52 1014.77 1014.90 1015.22 1015.65 1015.90 1016.32 1016.68
1007.58 1008.12 1008.72 1009.28 1009.57 1010.03 1010.48 1010.91 1011.23 1011.58 1012.11 1012.52 1012.99 1013.47 1013.84 1014.07 1014.27 1014.41 1014.81 1015.30 1015.82 1016.18
1006.64 1007.20 1007.66 1008.28 1008.89 1009.19 1009.70 1010.09 1010.58 1010.96 1011.37 1011.82 1012.15 1012.51 1012.95 1013.48 1013.87 1014.16 1014.55 1015.01 1015.32 1015.61
1005.47 1006.09 1006.73 1007.33 1007.89 1008.42 1008.67 1009.20 1009.53 1010.03 1010.44 1010.89 1011.34 1011.61 1011.95 1012.43 1012.87 1013.35 1013.72 1013.95 1014.25 1014.61
1004.17 1004.93 1005.81 1006.34 1006.77 1007.37 1007.85 1008.11 1008.67 1009.09 1009.57 1009.92 1010.20 1010.56 1011.06 1011.49 1011.97 1012.45 1012.82 1012.97 1013.19 1013.57
1002.84 1003.71 1004.47 1005.24 1005.75 1006.38 1006.89 1007.36 1007.87 1008.30 1008.58 1008.87 1009.08 1009.30 1009.80 1010.39 1010.72 1011.06 1011.67 1011.77 1011.79 1011.85
1001.56 1002.49 1003.34 1004.07 1004.81 1005.45 1005.89 1006.42 1006.83 1007.22 1007.51 1007.67 1007.85 1008.03 1008.50 1009.11 1009.60 1010.23 1010.49 1010.68 1010.88 1011.02
1000.51 1001.46 1002.38 1003.18 1003.85 1004.51 1004.97 1005.30 1005.71 1005.94 1006.16 1006.38 1006.32 1006.76 1007.38 1008.13 1008.82 1009.22 1009.17 1009.20 1009.27 1009.75
999.52 1000.34 1001.26 1001.95 1002.61 1003.29 1003.95 1004.31 1004.43 1004.78 1005.04 1005.12 1005.17 1005.74 1006.45 1007.48 1007.97 1007.87 1007.51 1007.74 1008.36 1008.29
998.76 999.38 1000.01 1000.73 1001.51 1002.26 1002.81 1003.16 1003.67 1003.76 1003.84 1004.23 1004.56 1004.98 1005.72 1006.62 1006.96 1006.81 1006.67 1006.87 1005.57 1005.65
997.78 998.40 999.07 999.93 1000.70 1001.39 1001.97 1002.46 1002.76 1002.81 1003.08 1003.37 1003.60 1003.95 1004.62 1005.53 1005.49 1005.08 1005.47 1005.24 1004.83 1005.77
Wind_Speed
16 9 11 10 7 9 7 9 12 14 11 10 11 8 6 6 5 6 5 5 4 3
17 16 13 13 9 6 8 6 8 15 12 11 8 10 9 6 7 5 7 7 5 4
18 18 16 11 13 11 8 8 5 14 13 12 11 11 10 8 7 9 6 6 8 6
19 18 17 15 13 14 11 9 7 9 12 12 12 11 10 10 9 10 10 8 7 10
17 18 18 18 17 15 13 12 12 9 10 12 13 12 13 13 12 11 13 12 7 7
19 19 19 18 18 16 16 15 14 12 12 13 14 14 14 13 14 12 10 11 12 10
19 19 18 17 18 18 17 17 16 16 14 14 15 15 16 16 15 15 12 12 14 13
19 17 18 18 18 18 18 17 18 16 16 17 15 14 16 16 15 15 15 14 13 14
20 19 19 18 18 17 18 18 16 17 18 18 15 18 19 18 16 17 16 16 16 16
19 18 19 18 18 18 18 17 18 18 18 19 19 19 21 23 17 15 16 17 16 16
16 18 17 18 18 17 16 17 17 18 20 19 19 20 20 21 19 16 17 18 19 18
14 16 17 19 19 17 16 16 17 17 19 21 20 18 19 17 16 19 20 17 17 18
14 15 17 18 18 15 16 17 14 17 18 20 19 16 18 18 14 17 15 16 27 22
15 15 15 15 15 15 15 14 16 17 15 17 17 18 18 21 18 17 15 16 14 11
Wind_Direction
211 204 210 223 224 215 210 199 187 193 196 179 186 202 233 177 193 182 198 240 227 274
200 211 202 212 222 233 215 246 177 181 186 186 188 187 205 204 189 202 188 203 216 223
198 204 211 195 215 221 236 214 163 177 183 184 189 187 203 201 214 199 196 206 196 206
203 200 204 210 203 215 213 225 232 183 182 184 187 196 198 210 203 203 205 202 211 195
202 204 204 209 210 204 212 207 220 203 189 188 192 195 205 209 220 214 203 207 208 201
206 205 208 207 210 211 205 214 206 214 204 198 198 201 206 212 217 229 211 207 208 215
208 209 208 209 210 210 212 205 211 211 205 208 205 205 207 208 214 215 229 206 211 209
203 207 208 209 211 209 212 213 208 208 213 210 212 211 210 212 212 215 216 229 214 214
201 200 204 209 211 210 211 213 210 211 211 214 217 209 202 205 215 212 216 220 223 219
198 201 202 204 208 210 212 209 212 211 213 216 218 213 202 202 214 216 218 220 222 227
194 199 198 202 206 209 210 212 211 214 214 219 221 210 205 201 214 219 224 224 222 226
194 194 197 202 204 205 208 211 215 216 218 221 226 209 203 187 212 222 226 226 232 227
206 199 201 202 204 204 208 214 213 221 223 226 230 216 200 191 218 227 227 224 236 212
201 209 201 199 201 205 208 211 218 224 225 229 227 230 196 192 216 226 228 235 244 242